Time,TemperatureF,DewpointF,PressureIn,WindDirection,WindDirectionDegrees,WindSpeedMPH,WindSpeedGustMPH,Humidity,HourlyPrecipIn,Conditions,Clouds,dailyrainin,SolarRadiationWatts/m^2,SoftwareType,DateUTC
2013-05-22 00:05:00,60.8,26.6,29.88,SSW,207,6.0,8.0,27,0.00,,,0.00,0,Wunderground v.1.15,2013-05-22 04:05:00,
2013-05-22 00:15:00,60.9,26.7,29.88,SW,216,6.0,7.0,27,0.00,,,0.00,0,Wunderground v.1.15,2013-05-22 04:15:00,
2013-05-22 00:20:00,61.0,26.7,29.88,SSW,200,6.0,6.0,27,0.00,,,0.00,0,Wunderground v.1.15,2013-05-22 04:20:00,
2013-05-22 00:25:00,61.0,25.8,29.88,SW,214,6.0,7.0,26,0.00,,,0.00,0,Wunderground v.1.15,2013-05-22 04:25:00,
2013-05-22 00:30:00,61.0,25.8,29.88,SSW,198,6.0,6.0,26,0.00,,,0.00,0,Wunderground v.1.15,2013-05-22 04:30:00,
2013-05-22 00:40:00,60.9,25.7,29.89,SW,217,6.0,6.0,26,0.00,,,0.00,0,Wunderground v.1.15,2013-05-22 04:40:00,
2013-05-22 00:45:00,61.0,25.8,29.89,SSW,209,5.0,6.0,26,0.00,,,0.00,0,Wunderground v.1.15,2013-05-22 04:45:00,
2013-05-22 00:50:00,61.0,25.8,29.89,South,190,5.0,5.0,26,0.00,,,0.00,0,Wunderground v.1.15,2013-05-22 04:50:00,
2013-05-22 01:00:00,61.1,25.9,29.89,SW,215,4.0,4.0,26,0.00,,,0.00,0,Wunderground v.1.15,2013-05-22 05:00:00,
2013-05-22 01:10:00,61.1,25.9,29.89,SW,226,2.0,2.0,26,0.00,,,0.00,0,Wunderground v.1.15,2013-05-22 05:10:00,
2013-05-22 01:20:00,61.2,25.1,29.89,SSW,196,1.0,3.0,25,0.00,,,0.00,0,Wunderground v.1.15,2013-05-22 05:20:00,
2013-05-22 01:30:00,61.4,25.2,29.90,South,187,1.0,1.0,25,0.00,,,0.00,0,Wunderground v.1.15,2013-05-22 05:30:00,
2013-05-22 01:35:00,61.4,25.2,29.90,South,187,1.0,1.0,25,0.00,,,0.00,0,Wunderground v.1.15,2013-05-22 05:35:00,
2013-05-22 01:45:00,61.3,25.1,29.90,South,187,1.0,3.0,25,0.00,,,0.00,0,Wunderground v.1.15,2013-05-22 05:45:00,
2013-05-22 01:55:00,61.2,25.1,29.91,ENE,72,2.0,3.0,25,0.00,,,0.00,0,Wunderground v.1.15,2013-05-22 05:55:00,
2013-05-22 02:00:00,61.3,25.1,29.91,ENE,72,1.0,1.0,25,0.00,,,0.00,0,Wunderground v.1.15,2013-05-22 06:00:00,
2013-05-22 02:10:00,61.3,25.1,29.91,ENE,75,1.0,1.0,25,0.00,,,0.00,0,Wunderground v.1.15,2013-05-22 06:10:00,
2013-05-22 02:20:00,61.5,24.3,29.91,East,79,3.0,5.0,24,0.00,,,0.00,0,Wunderground v.1.15,2013-05-22 06:20:00,
2013-05-22 02:30:00,61.7,24.5,29.91,ENE,78,4.0,4.0,24,0.00,,,0.00,0,Wunderground v.1.15,2013-05-22 06:30:00,
2013-05-22 02:40:00,61.6,24.4,29.90,SE,124,8.0,8.0,24,0.00,,,0.00,0,Wunderground v.1.15,2013-05-22 06:40:00,
2013-05-22 02:50:00,60.2,24.2,29.90,ESE,114,11.0,12.0,25,0.00,,,0.00,0,Wunderground v.1.15,2013-05-22 06:50:00,
2013-05-22 03:00:00,59.1,23.3,29.91,East,86,10.0,10.0,25,0.00,,,0.00,0,Wunderground v.1.15,2013-05-22 07:00:00,
2013-05-22 03:10:00,58.4,23.6,29.91,SE,136,10.0,10.0,26,0.00,,,0.00,0,Wunderground v.1.15,2013-05-22 07:10:00,
2013-05-22 03:20:00,57.4,22.8,29.91,ESE,104,11.0,13.0,26,0.00,,,0.00,0,Wunderground v.1.15,2013-05-22 07:20:00,
2013-05-22 03:25:00,57.2,22.6,29.91,ESE,109,11.0,13.0,26,0.00,,,0.00,0,Wunderground v.1.15,2013-05-22 07:25:00,
2013-05-22 03:35:00,56.9,22.3,29.92,East,97,9.0,13.0,26,0.00,,,0.00,0,Wunderground v.1.15,2013-05-22 07:35:00,
2013-05-22 03:45:00,56.2,22.6,29.91,SE,130,10.0,13.0,27,0.00,,,0.00,0,Wunderground v.1.15,2013-05-22 07:45:00,
2013-05-22 03:55:00,55.8,22.3,29.90,ESE,105,12.0,14.0,27,0.00,,,0.00,0,Wunderground v.1.15,2013-05-22 07:55:00,
2013-05-22 04:05:00,55.6,22.1,29.91,East,95,11.0,15.0,27,0.00,,,0.00,0,Wunderground v.1.15,2013-05-22 08:05:00,
2013-05-22 04:10:00,55.5,22.0,29.91,East,81,9.0,11.0,27,0.00,,,0.00,0,Wunderground v.1.15,2013-05-22 08:10:00,
2013-05-22 04:20:00,55.3,21.8,29.91,ENE,68,8.0,8.0,27,0.00,,,0.00,0,Wunderground v.1.15,2013-05-22 08:20:00,
2013-05-22 04:30:00,55.2,21.8,29.91,East,91,6.0,7.0,27,0.00,,,0.00,0,Wunderground v.1.15,2013-05-22 08:30:00,
2013-05-22 04:35:00,55.0,21.6,29.91,ESE,115,9.0,9.0,27,0.00,,,0.00,0,Wunderground v.1.15,2013-05-22 08:35:00,
2013-05-22 04:45:00,54.8,21.4,29.92,ENE,77,10.0,11.0,27,0.00,,,0.00,0,Wunderground v.1.15,2013-05-22 08:45:00,
2013-05-22 04:55:00,55.0,21.6,29.93,East,80,7.0,9.0,27,0.00,,,0.00,0,Wunderground v.1.15,2013-05-22 08:55:00,
2013-05-22 05:05:00,55.1,20.8,29.93,ENE,69,8.0,11.0,26,0.00,,,0.00,0,Wunderground v.1.15,2013-05-22 09:05:00,
2013-05-22 05:10:00,55.2,20.9,29.94,ENE,62,7.0,7.0,26,0.00,,,0.00,0,Wunderground v.1.15,2013-05-22 09:10:00,
2013-05-22 05:20:00,55.4,21.0,29.94,ENE,78,5.0,13.0,26,0.00,,,0.00,0,Wunderground v.1.15,2013-05-22 09:20:00,
2013-05-22 05:30:00,55.2,20.9,29.94,ENE,65,6.0,6.0,26,0.00,,,0.00,0,Wunderground v.1.15,2013-05-22 09:30:00,
2013-05-22 05:40:00,54.8,20.5,29.93,ENE,78,7.0,9.0,26,0.00,,,0.00,0,Wunderground v.1.15,2013-05-22 09:40:00,
2013-05-22 05:50:00,54.6,20.4,29.94,ENE,76,6.0,6.0,26,0.00,,,0.00,0,Wunderground v.1.15,2013-05-22 09:50:00,
2013-05-22 06:00:00,54.5,20.3,29.94,ENE,65,6.0,6.0,26,0.00,,,0.00,5,Wunderground v.1.15,2013-05-22 10:00:00,
2013-05-22 06:05:00,54.5,20.3,29.95,NE,48,5.0,6.0,26,0.00,,,0.00,5,Wunderground v.1.15,2013-05-22 10:05:00,
2013-05-22 06:15:00,54.4,20.2,29.95,ENE,68,5.0,7.0,26,0.00,,,0.00,7,Wunderground v.1.15,2013-05-22 10:15:00,
2013-05-22 06:25:00,54.3,20.1,29.95,East,79,6.0,7.0,26,0.00,,,0.00,19,Wunderground v.1.15,2013-05-22 10:25:00,
2013-05-22 06:35:00,54.4,20.2,29.96,ENE,61,5.0,6.0,26,0.00,,,0.00,26,Wunderground v.1.15,2013-05-22 10:35:00,
2013-05-22 06:45:00,54.5,20.3,29.96,East,88,5.0,7.0,26,0.00,,,0.00,23,Wunderground v.1.15,2013-05-22 10:45:00,
2013-05-22 06:55:00,54.6,20.4,29.96,ENE,77,5.0,9.0,26,0.00,,,0.00,33,Wunderground v.1.15,2013-05-22 10:55:00,
2013-05-22 07:05:00,54.6,20.4,29.95,ESE,105,5.0,9.0,26,0.00,,,0.00,67,Wunderground v.1.15,2013-05-22 11:05:00,
2013-05-22 07:10:00,54.8,19.6,29.94,SE,140,6.0,13.0,25,0.00,,,0.00,116,Wunderground v.1.15,2013-05-22 11:10:00,
2013-05-22 07:20:00,55.0,19.8,29.94,East,92,10.0,10.0,25,0.00,,,0.00,216,Wunderground v.1.15,2013-05-22 11:20:00,
2013-05-22 07:30:00,55.1,19.9,29.94,SE,134,9.0,9.0,25,0.00,,,0.00,195,Wunderground v.1.15,2013-05-22 11:30:00,
2013-05-22 07:40:00,55.4,20.1,29.93,SE,138,10.0,10.0,25,0.00,,,0.00,211,Wunderground v.1.15,2013-05-22 11:40:00,
2013-05-22 07:50:00,55.4,20.1,29.92,ESE,109,12.0,12.0,25,0.00,,,0.00,308,Wunderground v.1.15,2013-05-22 11:50:00,
2013-05-22 08:00:00,55.9,20.5,29.93,SE,144,9.0,9.0,25,0.00,,,0.00,195,Wunderground v.1.15,2013-05-22 12:00:00,
2013-05-22 08:05:00,56.0,20.6,29.93,SSE,151,9.0,9.0,25,0.00,,,0.00,202,Wunderground v.1.15,2013-05-22 12:05:00,
2013-05-22 08:15:00,55.9,20.5,29.93,SE,130,8.0,8.0,25,0.00,,,0.00,104,Wunderground v.1.15,2013-05-22 12:15:00,
2013-05-22 08:25:00,56.0,20.6,29.93,SSE,152,8.0,10.0,25,0.00,,,0.00,214,Wunderground v.1.15,2013-05-22 12:25:00,
2013-05-22 08:35:00,56.3,20.9,29.93,SSE,153,9.0,11.0,25,0.00,,,0.00,269,Wunderground v.1.15,2013-05-22 12:35:00,
2013-05-22 08:40:00,56.4,21.0,29.92,SSE,151,9.0,11.0,25,0.00,,,0.00,471,Wunderground v.1.15,2013-05-22 12:40:00,
2013-05-22 08:50:00,56.9,21.4,29.93,ESE,122,10.0,10.0,25,0.00,,,0.00,466,Wunderground v.1.15,2013-05-22 12:50:00,
2013-05-22 08:55:00,57.2,21.6,29.93,SSE,162,8.0,10.0,25,0.00,,,0.00,241,Wunderground v.1.15,2013-05-22 12:55:00,
2013-05-22 09:05:00,57.2,21.6,29.93,SSE,158,9.0,9.0,25,0.00,,,0.00,306,Wunderground v.1.15,2013-05-22 13:05:00,
2013-05-22 09:10:00,57.4,21.8,29.93,SE,132,7.0,7.0,25,0.00,,,0.00,151,Wunderground v.1.15,2013-05-22 13:10:00,
2013-05-22 09:20:00,57.5,21.9,29.93,SE,141,6.0,7.0,25,0.00,,,0.00,125,Wunderground v.1.15,2013-05-22 13:20:00,
2013-05-22 09:30:00,57.7,22.1,29.93,SSE,153,8.0,8.0,25,0.00,,,0.00,213,Wunderground v.1.15,2013-05-22 13:30:00,
2013-05-22 09:40:00,57.7,22.1,29.93,SSE,162,7.0,7.0,25,0.00,,,0.00,236,Wunderground v.1.15,2013-05-22 13:40:00,
2013-05-22 09:45:00,57.9,22.2,29.92,SSE,168,8.0,8.0,25,0.00,,,0.00,253,Wunderground v.1.15,2013-05-22 13:45:00,
2013-05-22 09:55:00,58.6,21.9,29.92,SSE,163,8.0,8.0,24,0.00,,,0.00,306,Wunderground v.1.15,2013-05-22 13:55:00,
2013-05-22 10:00:00,58.8,22.0,29.92,South,185,7.0,7.0,24,0.00,,,0.00,237,Wunderground v.1.15,2013-05-22 14:00:00,
2013-05-22 10:10:00,59.1,22.3,29.92,South,185,7.0,8.0,24,0.00,,,0.00,343,Wunderground v.1.15,2013-05-22 14:10:00,
2013-05-22 10:20:00,59.6,22.7,29.92,SSW,192,8.0,8.0,24,0.00,,,0.00,346,Wunderground v.1.15,2013-05-22 14:20:00,
2013-05-22 10:30:00,59.5,22.6,29.92,SSW,201,7.0,7.0,24,0.00,,,0.00,327,Wunderground v.1.15,2013-05-22 14:30:00,
2013-05-22 10:40:00,59.5,22.6,29.93,SW,227,5.0,5.0,24,0.00,,,0.00,244,Wunderground v.1.15,2013-05-22 14:40:00,
2013-05-22 10:50:00,59.4,23.5,29.93,SW,223,3.0,3.0,25,0.00,,,0.00,258,Wunderground v.1.15,2013-05-22 14:50:00,
2013-05-22 11:00:00,60.0,23.1,29.92,SW,234,3.0,3.0,24,0.00,,,0.00,308,Wunderground v.1.15,2013-05-22 15:00:00,
2013-05-22 11:05:00,59.9,23.0,29.93,SW,217,4.0,4.0,24,0.00,,,0.00,311,Wunderground v.1.15,2013-05-22 15:05:00,
2013-05-22 11:15:00,60.3,22.3,29.93,SSW,202,3.0,7.0,23,0.00,,,0.00,294,Wunderground v.1.15,2013-05-22 15:15:00,
2013-05-22 11:20:00,60.3,22.3,29.93,SW,228,4.0,4.0,23,0.00,,,0.00,271,Wunderground v.1.15,2013-05-22 15:20:00,
2013-05-22 11:30:00,60.3,22.3,29.93,West,263,5.0,5.0,23,0.00,,,0.00,285,Wunderground v.1.15,2013-05-22 15:30:00,
2013-05-22 11:40:00,60.8,22.7,29.93,WSW,240,4.0,6.0,23,0.00,,,0.00,322,Wunderground v.1.15,2013-05-22 15:40:00,
2013-05-22 11:45:00,60.7,22.6,29.93,SW,219,5.0,6.0,23,0.00,,,0.00,313,Wunderground v.1.15,2013-05-22 15:45:00,
2013-05-22 11:55:00,60.9,21.8,29.93,SW,223,6.0,6.0,22,0.00,,,0.00,315,Wunderground v.1.15,2013-05-22 15:55:00,
2013-05-22 12:00:00,61.0,21.8,29.93,WSW,255,5.0,5.0,22,0.00,,,0.00,345,Wunderground v.1.15,2013-05-22 16:00:00,
2013-05-22 12:05:00,61.1,21.9,29.93,SW,230,5.0,5.0,22,0.00,,,0.00,322,Wunderground v.1.15,2013-05-22 16:05:00,
2013-05-22 12:15:00,61.4,22.2,29.93,West,263,5.0,5.0,22,0.00,,,0.00,315,Wunderground v.1.15,2013-05-22 16:15:00,
2013-05-22 12:20:00,61.6,21.2,29.93,WSW,245,5.0,5.0,21,0.00,,,0.00,332,Wunderground v.1.15,2013-05-22 16:20:00,
2013-05-22 12:30:00,61.8,21.4,29.92,SW,230,5.0,5.0,21,0.00,,,0.00,404,Wunderground v.1.15,2013-05-22 16:30:00,
2013-05-22 12:35:00,62.0,20.4,29.92,SW,236,4.0,5.0,20,0.00,,,0.00,445,Wunderground v.1.15,2013-05-22 16:35:00,
2013-05-22 12:45:00,62.3,20.7,29.92,SSW,200,5.0,7.0,20,0.00,,,0.00,497,Wunderground v.1.15,2013-05-22 16:45:00,
2013-05-22 12:50:00,62.2,20.6,29.92,SSW,200,6.0,6.0,20,0.00,,,0.00,445,Wunderground v.1.15,2013-05-22 16:50:00,
2013-05-22 13:00:00,62.5,20.8,29.92,SSW,196,7.0,7.0,20,0.00,,,0.00,464,Wunderground v.1.15,2013-05-22 17:00:00,
2013-05-22 13:10:00,63.1,21.3,29.91,SW,222,6.0,12.0,20,0.00,,,0.00,557,Wunderground v.1.15,2013-05-22 17:10:00,
2013-05-22 13:15:00,63.4,21.6,29.91,SSW,192,6.0,12.0,20,0.00,,,0.00,656,Wunderground v.1.15,2013-05-22 17:15:00,
2013-05-22 13:25:00,64.1,24.4,29.91,SSW,205,7.0,10.0,22,0.00,,,0.00,694,Wunderground v.1.15,2013-05-22 17:25:00,
2013-05-22 13:35:00,64.4,26.8,29.91,SSW,198,6.0,10.0,24,0.00,,,0.00,807,Wunderground v.1.15,2013-05-22 17:35:00,
2013-05-22 13:40:00,65.1,29.3,29.91,SSW,192,5.0,5.0,26,0.00,,,0.00,926,Wunderground v.1.15,2013-05-22 17:40:00,
2013-05-22 13:50:00,66.1,35.4,29.91,WSW,243,5.0,6.0,32,0.00,,,0.00,874,Wunderground v.1.15,2013-05-22 17:50:00,
2013-05-22 14:00:00,66.7,42.9,29.90,SSW,210,5.0,5.0,42,0.00,,,0.00,896,Wunderground v.1.15,2013-05-22 18:00:00,
2013-05-22 14:05:00,67.1,45.6,29.90,SSW,195,5.0,6.0,46,0.00,,,0.00,865,Wunderground v.1.15,2013-05-22 18:05:00,
2013-05-22 14:10:00,67.2,49.0,29.90,South,188,5.0,6.0,52,0.00,,,0.00,858,Wunderground v.1.15,2013-05-22 18:10:00,
2013-05-22 14:20:00,66.6,50.4,29.90,South,180,8.0,9.0,56,0.00,,,0.00,842,Wunderground v.1.15,2013-05-22 18:20:00,
2013-05-22 14:25:00,65.9,50.2,29.90,SSW,203,8.0,11.0,57,0.00,,,0.00,800,Wunderground v.1.15,2013-05-22 18:25:00,
2013-05-22 14:35:00,65.1,47.5,29.90,SSW,198,9.0,9.0,53,0.00,,,0.00,564,Wunderground v.1.15,2013-05-22 18:35:00,
2013-05-22 14:40:00,64.4,46.4,29.90,SSW,203,9.0,9.0,52,0.00,,,0.00,443,Wunderground v.1.15,2013-05-22 18:40:00,
2013-05-22 14:50:00,64.1,43.4,29.89,SSW,201,8.0,8.0,47,0.00,,,0.00,283,Wunderground v.1.15,2013-05-22 18:50:00,
2013-05-22 14:55:00,63.4,41.7,29.90,South,186,7.0,8.0,45,0.00,,,0.00,265,Wunderground v.1.15,2013-05-22 18:55:00,
2013-05-22 15:05:00,63.0,38.3,29.90,SW,225,5.0,6.0,40,0.00,,,0.00,236,Wunderground v.1.15,2013-05-22 19:05:00,
2013-05-22 15:10:00,62.9,36.9,29.90,SW,215,4.0,4.0,38,0.00,,,0.00,204,Wunderground v.1.15,2013-05-22 19:10:00,
2013-05-22 15:20:00,62.7,35.3,29.90,SW,225,4.0,4.0,36,0.00,,,0.00,227,Wunderground v.1.15,2013-05-22 19:20:00,
2013-05-22 15:25:00,62.6,34.5,29.90,SSW,203,4.0,4.0,35,0.00,,,0.00,237,Wunderground v.1.15,2013-05-22 19:25:00,
2013-05-22 15:30:00,62.7,33.2,29.90,SSW,198,4.0,4.0,33,0.00,,,0.00,223,Wunderground v.1.15,2013-05-22 19:30:00,
2013-05-22 15:40:00,62.3,32.8,29.90,SSW,194,5.0,5.0,33,0.00,,,0.00,148,Wunderground v.1.15,2013-05-22 19:40:00,
2013-05-22 15:45:00,62.2,32.0,29.90,SSW,206,5.0,5.0,32,0.00,,,0.00,167,Wunderground v.1.15,2013-05-22 19:45:00,
2013-05-22 15:55:00,62.4,30.5,29.90,WSW,246,3.0,7.0,30,0.00,,,0.00,162,Wunderground v.1.15,2013-05-22 19:55:00,
2013-05-22 16:05:00,61.9,29.3,29.89,SW,217,5.0,7.0,29,0.00,,,0.00,162,Wunderground v.1.15,2013-05-22 20:05:00,
2013-05-22 16:15:00,61.9,27.5,29.89,SW,215,4.0,5.0,27,0.00,,,0.00,97,Wunderground v.1.15,2013-05-22 20:15:00,
2013-05-22 16:20:00,61.8,26.5,29.89,SW,223,4.0,4.0,26,0.00,,,0.00,95,Wunderground v.1.15,2013-05-22 20:20:00,
2013-05-22 16:30:00,61.8,25.6,29.89,SSW,194,3.0,4.0,25,0.00,,,0.00,113,Wunderground v.1.15,2013-05-22 20:30:00,
2013-05-22 16:35:00,61.7,25.5,29.89,South,188,3.0,4.0,25,0.00,,,0.00,91,Wunderground v.1.15,2013-05-22 20:35:00,
2013-05-22 16:45:00,61.6,24.4,29.89,SSW,199,6.0,7.0,24,0.00,,,0.00,104,Wunderground v.1.15,2013-05-22 20:45:00,
2013-05-22 16:50:00,61.2,24.1,29.89,SSW,199,7.0,10.0,24,0.00,,,0.00,102,Wunderground v.1.15,2013-05-22 20:50:00,
2013-05-22 17:00:00,60.7,22.6,29.89,SSW,194,6.0,7.0,23,0.00,,,0.00,125,Wunderground v.1.15,2013-05-22 21:00:00,
2013-05-22 17:10:00,60.9,21.8,29.89,SSW,206,6.0,6.0,22,0.00,,,0.00,139,Wunderground v.1.15,2013-05-22 21:10:00,
2013-05-22 17:20:00,60.8,20.6,29.89,SSW,193,6.0,6.0,21,0.00,,,0.00,156,Wunderground v.1.15,2013-05-22 21:20:00,
2013-05-22 17:25:00,60.7,20.5,29.89,SSW,196,6.0,6.0,21,0.00,,,0.00,135,Wunderground v.1.15,2013-05-22 21:25:00,
2013-05-22 17:35:00,60.8,19.4,29.89,SSW,200,4.0,7.0,20,0.00,,,0.00,98,Wunderground v.1.15,2013-05-22 21:35:00,
2013-05-22 17:45:00,60.4,19.1,29.89,SSW,212,5.0,6.0,20,0.00,,,0.00,60,Wunderground v.1.15,2013-05-22 21:45:00,
2013-05-22 17:55:00,60.5,19.2,29.88,SSW,198,6.0,7.0,20,0.00,,,0.00,62,Wunderground v.1.15,2013-05-22 21:55:00,
2013-05-22 18:05:00,60.3,19.0,29.88,South,191,6.0,6.0,20,0.00,,,0.00,53,Wunderground v.1.15,2013-05-22 22:05:00,
2013-05-22 18:15:00,59.9,18.7,29.89,SW,220,5.0,6.0,20,0.00,,,0.00,39,Wunderground v.1.15,2013-05-22 22:15:00,
2013-05-22 18:25:00,59.8,17.4,29.88,SW,215,4.0,6.0,19,0.00,,,0.00,44,Wunderground v.1.15,2013-05-22 22:25:00,
2013-05-22 18:30:00,59.9,17.5,29.88,SSW,198,5.0,5.0,19,0.00,,,0.00,39,Wunderground v.1.15,2013-05-22 22:30:00,
2013-05-22 18:40:00,59.9,17.5,29.88,SSW,205,5.0,5.0,19,0.00,,,0.00,46,Wunderground v.1.15,2013-05-22 22:40:00,
2013-05-22 18:50:00,59.9,17.5,29.88,SSW,198,5.0,5.0,19,0.00,,,0.00,49,Wunderground v.1.15,2013-05-22 22:50:00,
2013-05-22 19:00:00,60.1,17.6,29.89,SSW,198,5.0,5.0,19,0.00,,,0.00,39,Wunderground v.1.15,2013-05-22 23:00:00,
2013-05-22 19:05:00,60.0,16.3,29.89,SW,225,4.0,5.0,18,0.00,,,0.00,37,Wunderground v.1.15,2013-05-22 23:05:00,
2013-05-22 19:15:00,60.1,16.4,29.89,SW,217,4.0,4.0,18,0.00,,,0.00,42,Wunderground v.1.15,2013-05-22 23:15:00,
2013-05-22 19:25:00,60.0,16.3,29.89,SSW,200,4.0,4.0,18,0.00,,,0.00,42,Wunderground v.1.15,2013-05-22 23:25:00,
2013-05-22 19:30:00,60.0,16.3,29.89,SSW,205,5.0,5.0,18,0.00,,,0.00,44,Wunderground v.1.15,2013-05-22 23:30:00,
2013-05-22 19:40:00,60.1,16.4,29.89,SSW,197,6.0,6.0,18,0.00,,,0.00,33,Wunderground v.1.15,2013-05-22 23:40:00,
2013-05-22 19:50:00,60.3,16.6,29.89,SW,214,5.0,5.0,18,0.00,,,0.00,16,Wunderground v.1.15,2013-05-22 23:50:00,
2013-05-22 20:00:00,60.4,16.6,29.89,SSW,213,5.0,5.0,18,0.00,,,0.00,9,Wunderground v.1.15,2013-05-23 00:00:00,
2013-05-22 20:10:00,60.3,16.6,29.89,SW,216,5.0,5.0,18,0.00,,,0.00,0,Wunderground v.1.15,2013-05-23 00:10:00,
2013-05-22 20:20:00,60.2,16.5,29.89,SSW,200,5.0,6.0,18,0.00,,,0.00,0,Wunderground v.1.15,2013-05-23 00:20:00,
2013-05-22 20:30:00,60.3,16.6,29.89,SSW,199,5.0,6.0,18,0.00,,,0.00,0,Wunderground v.1.15,2013-05-23 00:30:00,
2013-05-22 20:40:00,60.3,16.6,29.89,SSW,201,6.0,8.0,18,0.00,,,0.00,0,Wunderground v.1.15,2013-05-23 00:40:00,
2013-05-22 20:50:00,60.3,15.2,29.89,SSW,211,6.0,6.0,17,0.00,,,0.00,0,Wunderground v.1.15,2013-05-23 00:50:00,
2013-05-22 21:00:00,60.2,15.2,29.89,SSW,205,7.0,7.0,17,0.00,,,0.00,0,Wunderground v.1.15,2013-05-23 01:00:00,
2013-05-22 21:05:00,60.3,15.2,29.89,SSW,213,6.0,7.0,17,0.00,,,0.00,0,Wunderground v.1.15,2013-05-23 01:05:00,
2013-05-22 21:15:00,60.2,15.2,29.90,SW,227,6.0,10.0,17,0.00,,,0.00,0,Wunderground v.1.15,2013-05-23 01:15:00,
2013-05-22 21:20:00,60.2,15.2,29.90,SSW,205,6.0,7.0,17,0.00,,,0.00,0,Wunderground v.1.15,2013-05-23 01:20:00,
2013-05-22 21:30:00,60.2,15.2,29.91,SW,223,6.0,10.0,17,0.00,,,0.00,0,Wunderground v.1.15,2013-05-23 01:30:00,
2013-05-22 21:35:00,60.2,15.2,29.91,SSW,198,6.0,10.0,17,0.00,,,0.00,0,Wunderground v.1.15,2013-05-23 01:35:00,
2013-05-22 21:45:00,60.2,15.2,29.91,South,188,7.0,7.0,17,0.00,,,0.00,0,Wunderground v.1.15,2013-05-23 01:45:00,
2013-05-22 21:55:00,60.4,15.3,29.91,South,191,7.0,10.0,17,0.00,,,0.00,0,Wunderground v.1.15,2013-05-23 01:55:00,
2013-05-22 22:00:00,60.4,15.3,29.91,SSW,194,8.0,8.0,17,0.00,,,0.00,0,Wunderground v.1.15,2013-05-23 02:00:00,
2013-05-22 22:10:00,60.5,14.0,29.91,SSW,203,8.0,8.0,16,0.00,,,0.00,0,Wunderground v.1.15,2013-05-23 02:10:00,
2013-05-22 22:20:00,60.3,13.9,29.91,SSW,196,7.0,7.0,16,0.00,,,0.00,0,Wunderground v.1.15,2013-05-23 02:20:00,
2013-05-22 22:30:00,60.4,13.9,29.92,SSW,194,8.0,8.0,16,0.00,,,0.00,0,Wunderground v.1.15,2013-05-23 02:30:00,
2013-05-22 22:40:00,60.4,13.9,29.92,SSW,198,6.0,6.0,16,0.00,,,0.00,0,Wunderground v.1.15,2013-05-23 02:40:00,
2013-05-22 22:45:00,60.4,13.9,29.92,South,181,6.0,6.0,16,0.00,,,0.00,0,Wunderground v.1.15,2013-05-23 02:45:00,
2013-05-22 22:55:00,60.4,13.9,29.92,SSW,194,7.0,8.0,16,0.00,,,0.00,0,Wunderground v.1.15,2013-05-23 02:55:00,
2013-05-22 23:05:00,60.4,13.9,29.92,SSW,198,8.0,11.0,16,0.00,,,0.00,0,Wunderground v.1.15,2013-05-23 03:05:00,
2013-05-22 23:15:00,60.4,12.5,29.91,SSW,203,8.0,10.0,15,0.00,,,0.00,0,Wunderground v.1.15,2013-05-23 03:15:00,
2013-05-22 23:20:00,60.4,12.5,29.91,SW,232,8.0,8.0,15,0.00,,,0.00,0,Wunderground v.1.15,2013-05-23 03:20:00,
2013-05-22 23:30:00,60.5,12.5,29.91,SW,214,10.0,10.0,15,0.00,,,0.00,0,Wunderground v.1.15,2013-05-23 03:30:00,
2013-05-22 23:40:00,60.6,12.6,29.91,SSW,213,10.0,10.0,15,0.00,,,0.00,0,Wunderground v.1.15,2013-05-23 03:40:00,
2013-05-22 23:45:00,60.7,12.7,29.91,SSW,201,10.0,11.0,15,0.00,,,0.00,0,Wunderground v.1.15,2013-05-23 03:45:00,
2013-05-22 23:55:00,60.5,12.5,29.91,SSW,203,9.0,9.0,15,0.00,,,0.00,0,Wunderground v.1.15,2013-05-23 03:55:00,